Location: Leganes-MADRID
(40.3441°N, 3.7527°W)
Time: 01:30:00
(UTC+02:00)

ISS - Visible Passes

Search period start: 20 July 2018 00:00
Search period end: 30 July 2018 00:00
Orbit: 402 x 408 km, 51.6° (Epoch: 20 July)

Date Brightness Start Highest point End Pass type
(mag) Time Alt. Az. Time Alt. Az. Time Alt. Az.
20 Jul -1.6 00:35:56 10° W 00:38:49 27° NNW 00:41:40 10° NE visible
20 Jul -0.3 02:14:44 10° NNW 02:16:09 12° N 02:17:34 10° NNE visible
20 Jul -0.6 03:51:41 10° NNW 03:53:43 15° NNE 03:55:46 10° NE visible
20 Jul -3.1 05:27:32 10° NW 05:30:46 55° NNE 05:34:01 10° ESE visible
20 Jul -2.5 22:07:45 10° S 22:10:17 21° SE 22:12:49 10° E visible
20 Jul -2.5 23:43:27 10° WSW 23:46:35 42° NNW 23:49:44 10° NE visible
21 Jul -0.5 01:21:55 10° NW 01:23:44 14° NNW 01:25:34 10° NNE visible
21 Jul -0.4 02:59:44 10° NNW 03:01:20 13° N 03:02:54 10° NE visible
21 Jul -2.0 04:35:34 10° NW 04:38:35 32° NNE 04:41:36 10° E visible
21 Jul -3.0 06:12:07 10° WNW 06:15:03 30° SW 06:17:58 10° SSE visible
21 Jul -3.7 22:51:10 10° WSW 22:54:26 78° NW 22:57:43 10° NE visible
22 Jul -0.8 00:29:04 10° WNW 00:31:21 17° NNW 00:33:39 10° NNE visible
22 Jul -0.3 02:07:36 10° NNW 02:08:53 12° N 02:10:10 10° NNE visible
22 Jul -1.2 03:43:39 10° NNW 03:46:19 22° NNE 03:48:58 10° ENE visible
22 Jul -3.9 05:19:46 10° WNW 05:23:02 60° SW 05:26:17 10° SE visible
22 Jul -1.3 23:36:19 10° W 23:39:00 23° NNW 23:41:44 10° NNE visible
23 Jul -0.4 01:15:07 10° NNW 01:16:25 12° N 01:17:44 10° NNE visible
23 Jul -0.7 02:51:45 10° NNW 02:53:20 16° N 02:53:20 16° N visible
23 Jul -2.0 22:43:41 10° W 22:46:44 35° NNW 22:49:47 10° NE visible
24 Jul -0.5 00:22:19 10° NW 00:23:58 13° N 00:25:36 10° NNE visible
24 Jul -0.6 01:59:48 10° NNW 02:01:33 13° N 02:01:43 13° NNE visible
24 Jul -0.7 23:29:25 10° NW 23:31:31 16° NNW 23:33:38 10° NNE visible
25 Jul -0.5 01:07:43 10° NNW 01:09:05 12° N 01:10:26 10° NNE visible
25 Jul -1.0 22:36:34 10° WNW 22:39:07 21° NNW 22:41:41 10° NNE visible
26 Jul -0.6 00:15:20 10° NNW 00:16:34 12° N 00:17:49 10° NNE visible
26 Jul -0.5 01:51:42 10° NNW 01:52:34 14° NNW 01:52:34 14° NNW visible
26 Jul -0.7 23:22:35 10° NW 23:24:04 12° N 23:25:34 10° NNE visible
27 Jul -0.8 00:59:44 10° NNW 01:01:38 14° NNE 01:01:54 14° NNE visible
27 Jul -0.8 22:29:39 10° NW 22:31:35 15° NNW 22:33:31 10° NNE visible
28 Jul -0.8 00:07:40 10° NNW 00:09:09 12° N 00:10:37 10° NNE visible
28 Jul -0.5 01:43:32 10° NW 01:43:54 12° NNW 01:43:54 12° NNW visible
28 Jul -0.7 23:15:23 10° NNW 23:16:37 12° N 23:17:51 10° NNE visible
29 Jul -1.1 00:51:33 10° NNW 00:53:17 19° N 00:53:17 19° N visible
29 Jul -0.8 22:22:43 10° NNW 22:24:04 12° N 22:25:26 10° NNE visible
